CW5542 Weather Reports


time (UTC)temp
F
wind
direction
speed
knots
gust
knots
rain 1hr
in
rain 24hr
in
rain mn
in
humidity
%
barometer
mb
20260503045956 38 222 0.0 0.0 0.00 0.00 0.00 60 1015.5
20260503044956 38 221 0.0 0.0 0.00 0.00 0.00 60 1015.5
20260503043955 38 224 0.0 0.0 0.00 0.00 0.00 60 1015.6
20260503042954 38 226 0.0 0.0 0.00 0.00 0.00 59 1015.5
20260503041954 38 229 0.0 0.0 0.00 0.00 0.00 60 1015.6
20260503040953 38 226 0.0 0.0 0.00 0.00 0.00 60 1015.6
20260503035952 38 225 0.0 0.0 0.00 0.00 0.00 59 1015.7
20260503034952 38 226 0.0 0.0 0.00 0.00 0.00 61 1015.7
20260503033952 38 226 0.0 0.0 0.00 0.00 0.00 62 1015.8
20260503032951 38 226 0.0 0.0 0.00 0.00 0.00 59 1015.9
20260503031950 38 226 0.0 0.0 0.00 0.00 0.00 60 1015.9
20260503030950 39 226 0.0 0.0 0.00 0.00 0.00 58 1015.8
20260503025949 39 226 0.0 0.0 0.00 0.00 0.00 57 1015.9
20260503024948 39 226 0.0 0.0 0.00 0.00 0.00 57 1015.9
20260503023947 39 226 0.0 0.0 0.00 0.00 0.00 60 1016.0
20260503022947 39 226 0.0 0.0 0.00 0.00 0.00 59 1016.0
20260503021946 39 226 0.0 0.0 0.00 0.00 0.00 59 1015.9
20260503020946 40 226 0.0 0.0 0.00 0.00 0.00 57 1015.9
20260503015945 40 226 0.0 0.0 0.00 0.00 0.00 55 1015.9
20260503014945 41 226 0.0 0.0 0.00 0.00 0.00 53 1015.9
20260503013944 41 226 0.0 0.0 0.00 0.00 0.00 52 1015.9
20260503013013 42 226 0.0 0.0 0.00 0.00 0.00 51 1015.8
20260503012012 43 223 0.0 0.0 0.00 0.00 0.00 50 1015.7
20260503010942 43 223 0.0 0.0 0.00 0.00 0.00 48 1015.6
20260503010011 44 223 0.0 0.0 0.00 0.00 0.00 48 1015.7
20260503005010 44 175 0.0 0.0 0.00 0.00 0.00 48 1015.5
20260503003009 46 290 0.0 0.0 0.00 0.00 0.00 46 1015.4
20260503002009 46 290 0.0 0.0 0.00 0.00 0.00 46 1015.5
20260503001008 47 279 0.0 0.0 0.00 0.00 0.00 44 1015.5
20260503000007 47 209 0.0 0.0 0.00 0.00 0.00 44 1015.5
20260502235007 47 27 0.0 0.0 0.00 0.00 0.00 44 1015.4
20260502234006 47 315 0.0 0.0 0.00 0.00 0.00 45 1015.4
20260502233006 47 316 0.0 0.0 0.00 0.00 0.00 45 1015.5
20260502232006 47 314 0.0 0.0 0.00 0.00 0.00 44 1015.5
20260502231006 47 313 0.0 0.0 0.00 0.00 0.00 44 1015.5
20260502225005 47 316 0.0 0.0 0.00 0.00 0.00 42 1015.6
20260502224004 47 311 0.0 0.0 0.00 0.00 0.00 43 1015.6
20260502223003 48 308 0.0 0.0 0.00 0.00 0.00 44 1015.6
20260502222002 48 268 0.0 0.0 0.00 0.00 0.00 43 1015.6
20260502215001 47 317 0.0 0.0 0.00 0.00 0.00 47 1015.6
20260502214000 47 224 0.0 0.0 0.00 0.00 0.00 47 1015.7
20260502213000 47 308 0.0 0.0 0.00 0.00 0.00 47 1015.8
20260502212000 47 35 0.0 0.0 0.00 0.00 0.00 47 1015.7
20260502210959 47 297 0.0 0.0 0.00 0.00 0.00 47 1015.8
20260502205958 47 301 0.0 1.7 0.00 0.00 0.00 46 1015.9
20260502204958 47 307 0.0 0.0 0.00 0.00 0.00 48 1016.0
20260502203957 46 296 0.0 1.7 0.00 0.00 0.00 47 1016.1
20260502202956 47 308 0.0 1.7 0.00 0.00 0.00 44 1016.1
20260502201956 48 309 0.0 0.0 0.00 0.00 0.00 44 1016.1
20260502200955 47 315 0.0 0.0 0.00 0.00 0.00 44 1016.2
20260502195954 47 264 0.0 0.0 0.00 0.00 0.00 43 1016.4
20260502192952 46 297 0.0 0.0 0.00 0.00 0.00 45 1016.6
20260502190951 46 304 0.0 8.7 0.00 0.00 0.00 44 1016.9
20260502184951 47 312 0.0 17.4 0.00 0.00 0.00 41 1017.0
20260502183951 46 316 0.0 0.0 0.00 0.00 0.00 44 1017.0
20260502182951 46 312 0.0 0.0 0.00 0.00 0.00 41 1017.1
20260502181950 47 311 0.0 0.0 0.00 0.00 0.00 44 1017.2
20260502180950 46 194 0.0 1.7 0.00 0.00 0.00 48 1017.2
20260502163947 45 316 0.0 8.7 0.00 0.01 0.00 44 1018.0
20260502162947 45 308 0.0 0.0 0.00 0.01 0.00 48 1018.0
20260502161946 43 313 0.0 0.0 0.00 0.01 0.00 48 1017.9
20260502160945 43 306 0.0 0.0 0.00 0.01 0.00 50 1017.9
20260502150942 43 294 0.0 0.0 0.00 0.01 0.00 52 1017.9
20260502123004 35 314 0.0 3.5 0.00 0.01 0.00 79 1017.9
20260502122004 35 314 0.0 0.0 0.00 0.01 0.00 81 1017.8
20260502121004 34 314 0.0 0.0 0.00 0.01 0.00 82 1017.9
20260502113004 32 310 0.0 0.0 0.00 0.01 0.00 86 1017.5
20260502111002 30 310 0.0 0.0 0.00 0.01 0.00 88 1017.3
20260502110002 29 310 0.0 0.0 0.00 0.01 0.00 87 1017.2
20260502105001 29 310 0.0 0.0 0.00 0.01 0.00 87 1017.1
20260502104000 30 310 0.0 0.0 0.00 0.01 0.00 86 1017.2
20260502103000 30 310 0.0 0.0 0.00 0.01 0.00 86 1017.2
20260502101959 30 310 0.0 0.0 0.00 0.01 0.00 86 1017.1
20260502100958 30 310 0.0 0.0 0.00 0.01 0.00 85 1017.1
20260502090955 31 310 0.0 0.0 0.00 0.01 0.00 81 1016.9
20260502070945 37 310 0.0 0.0 0.00 0.01 0.00 69 1016.4
20260502065944 37 310 0.0 0.0 0.00 0.01 0.00 69 1016.4
20260502064943 38 310 0.0 0.0 0.00 0.01 0.00 69 1016.5
20260502063943 38 310 0.0 0.0 0.00 0.01 0.00 68 1016.6
20260502063011 39 310 0.0 0.0 0.00 0.01 0.00 68 1016.6
20260502061940 39 310 0.0 0.0 0.00 0.01 0.00 68 1016.6
20260502061010 39 310 0.0 0.0 0.00 0.01 0.00 67 1016.7
20260502060009 39 310 0.0 0.0 0.00 0.01 0.00 66 1016.8
20260502055008 39 310 0.0 0.0 0.00 0.01 0.00 64 1016.8
20260502054007 40 310 0.0 0.0 0.00 0.01 0.00 64 1016.8
20260502053006 40 310 0.0 0.0 0.00 0.01 0.00 64 1016.8
20260502052005 40 310 0.0 0.0 0.00 0.01 0.00 64 1016.8
20260502051004 40 310 0.0 0.0 0.00 0.01 0.00 64 1016.8